This is the latest recevied weather packets stored in our database for station/object KB1RMA-13. If no packets are shown the sender has not sent any weather packets the latest 10 day(s).
| Time | Temp. | Humidity | Pressure | Rain* | Wind** | Luminosity | Snow |
|---|---|---|---|---|---|---|---|
| 1777054681 | 8.33° C | 61% | 1010.4 hPa | 0 mm | - | 440 W/m² | - |
| 1777054378 | 8.89° C | 63% | 1010.3 hPa | 0 mm | - | 220 W/m² | - |
| 1777054077 | 8.89° C | 62% | 1010.1 hPa | 0 mm | - | 326 W/m² | - |
| 1777053772 | 9.44° C | 60% | 1010.4 hPa | 0 mm | - | 867 W/m² | - |
| 1777053471 | 8.89° C | 58% | 1010.4 hPa | 0 mm | - | 260 W/m² | - |
| 1777053168 | 9.44° C | 57% | 1010.5 hPa | 0 mm | - | 1005 W/m² | - |
| 1777052864 | 9.44° C | 53% | 1010.4 hPa | 0 mm | - | 206 W/m² | - |
| 1777052560 | 9.44° C | 53% | 1010.3 hPa | 0 mm | - | 211 W/m² | - |
| 1777052255 | 8.89° C | 55% | 1010.4 hPa | 0 mm | - | 196 W/m² | - |
| 1777051951 | 8.89° C | 58% | 1010.4 hPa | 0 mm | - | 269 W/m² | - |
| 1777051649 | 8.33° C | 58% | 1010.5 hPa | 0 mm | - | 316 W/m² | - |
| 1777051344 | 7.78° C | 61% | 1010.4 hPa | 0 mm | - | 376 W/m² | - |
| 1777051040 | 7.78° C | 58% | 1010.6 hPa | 0 mm | - | 241 W/m² | - |
| 1777050736 | 8.89° C | 62% | 1010.6 hPa | 0 mm | - | 937 W/m² | - |
| 1777050431 | 7.78° C | 58% | 1010.6 hPa | 0 mm | - | 164 W/m² | - |
| 1777050127 | 7.78° C | 59% | 1010.8 hPa | 0 mm | - | 210 W/m² | - |
| 1777049822 | 8.33° C | 57% | 1010.7 hPa | 0 mm | - | 197 W/m² | - |
| 1777049517 | 8.33° C | 57% | 1010.6 hPa | 0 mm | - | 509 W/m² | - |
| 1777049216 | 8.33° C | 57% | 1010.9 hPa | 0 mm | - | 204 W/m² | - |
| 1777048916 | 7.78° C | 57% | 1010.7 hPa | 0 mm | - | 926 W/m² | - |
| 1777048611 | 8.33° C | 60% | 1010.7 hPa | 0 mm | - | 155 W/m² | - |
| 1777048307 | 8.33° C | 62% | 1010.8 hPa | 0 mm | - | 192 W/m² | - |
| 1777048001 | 7.22° C | 59% | 1010.7 hPa | 0 mm | - | 267 W/m² | - |
| 1777047697 | 8.33° C | 57% | 1010.9 hPa | 0 mm | - | 280 W/m² | - |
| 1777047393 | 7.78° C | 56% | 1010.8 hPa | 0 mm | - | 956 W/m² | - |
* Rain latest hour (hover to see other rain measurements)
** Current wind speed in m/s (hover to see current wind gust speed)